Genco Auvergne — V7ES3 — position and weather

sailwx.info

Track history (hours):
 
Tides and Currents Weather Stations Pressure Air Temp Water Temp Dewpoint Dewpoint Depression Visibility Wind Speed Wind Dir Waves Ship Positions

Genco Auvergne

Last reported at 2014-Sep-18 18:17 UTC. Time now 2014-Sep-20 18:07 UTC.
Position N 01°15' E 104°04'.

Length 190 m; draft 7.1 m.

Type: Cargo ship. MMSI: 538002570.

Date/timePositionNaut miles runAvg speedWind from/ knotsBaromVisibWave heightAir tempDewpointWater temp
2014-Sep-18 18:17N 01°15' E 104°04'7 9.6
2014-Sep-18 17:33N 01°15' E 103°57'2 1.6
2014-Sep-18 16:32N 01°17' E 103°57'0 0.0
2014-Sep-18 15:29N 01°17' E 103°57'0 0.0
2014-Sep-18 14:32N 01°17' E 103°57'0 0.1
2014-Sep-18 13:32N 01°17' E 103°57'0 0.1
2014-Sep-18 12:29N 01°17' E 103°57'0 0.1
2014-Sep-18 11:32N 01°17' E 103°57'0 0.0
2014-Sep-18 10:32N 01°17' E 103°57'0 0.0
2014-Sep-18 09:32N 01°17' E 103°57'0 0.0
2014-Sep-18 08:32N 01°17' E 103°57'0 0.1
2014-Sep-18 07:26N 01°17' E 103°57'0 0.0
2014-Sep-18 06:32N 01°17' E 103°57'0 0.0
2014-Sep-18 05:31N 01°17' E 103°57'1 1.0
2014-Sep-18 04:34N 01°16' E 103°57'3 3.4
2014-Sep-18 03:34N 01°13' E 103°55'5 5.1
2014-Sep-18 02:33N 01°11' E 103°51'4 3.8
2014-Sep-18 01:34N 01°09' E 103°47'5 4.7
2014-Sep-18 00:33N 01°05' E 103°44'10 9.6
2014-Sep-17 23:33N 01°05' E 103°34'1211.8
2014-Sep-17 22:33N 01°11' E 103°24'  
Track history (hours):
 
Tides and Currents Weather Stations Pressure Air Temp Water Temp Dewpoint Dewpoint Depression Visibility Wind Speed Wind Dir Waves Ship Positions

Genco Auvergne

Last reported at 2014-Sep-18 18:17 UTC. Time now 2014-Sep-20 18:07 UTC.
Position N 01°15' E 104°04'.

Length 190 m; draft 7.1 m.

Type: Cargo ship. MMSI: 538002570.

Date/timePositionNaut miles runAvg speedWind from/ knotsBaromVisibWave heightAir tempDewpointWater temp
2014-Sep-18 18:17N 01°15' E 104°04'7 9.6
2014-Sep-18 17:33N 01°15' E 103°57'2 1.6
2014-Sep-18 16:32N 01°17' E 103°57'0 0.0
2014-Sep-18 15:29N 01°17' E 103°57'0 0.0
2014-Sep-18 14:32N 01°17' E 103°57'0 0.1
2014-Sep-18 13:32N 01°17' E 103°57'0 0.1
2014-Sep-18 12:29N 01°17' E 103°57'0 0.1
2014-Sep-18 11:32N 01°17' E 103°57'0 0.0
2014-Sep-18 10:32N 01°17' E 103°57'0 0.0
2014-Sep-18 09:32N 01°17' E 103°57'0 0.0
2014-Sep-18 08:32N 01°17' E 103°57'0 0.1
2014-Sep-18 07:26N 01°17' E 103°57'0 0.0
2014-Sep-18 06:32N 01°17' E 103°57'0 0.0
2014-Sep-18 05:31N 01°17' E 103°57'1 1.0
2014-Sep-18 04:34N 01°16' E 103°57'3 3.4
2014-Sep-18 03:34N 01°13' E 103°55'5 5.1
2014-Sep-18 02:33N 01°11' E 103°51'4 3.8
2014-Sep-18 01:34N 01°09' E 103°47'5 4.7
2014-Sep-18 00:33N 01°05' E 103°44'10 9.6
2014-Sep-17 23:33N 01°05' E 103°34'1211.8
2014-Sep-17 22:33N 01°11' E 103°24'  

Dump ship's entire track history